Regional Weather Roundup
Issued by NWS Newport/Morehead, NC

Current Version | Previous Version | Graphics & Text | Print | Product List | Glossary Off
Versions: 1 2 3 4 5 6 7 8 9 10 11 12 13 14 15 16 17 18 19 20 21 22 23 24 25 26 27 28 29 30 31 32 33 34 35 36 37 38 39 40 41 42 43 44 45 46 47 48 49 50

000
ASUS42 KMHX 232010
RWRMHX
WEATHER ROUNDUP FOR EASTERN NORTH CAROLINA
NATIONAL WEATHER SERVICE NEWPORT/MOREHEAD CITY NC
300 PM EST SUN NOV 23 2014

NOTE: "FAIR" INDICATES FEW OR NO CLOUDS BELOW 12,000 FEET
WITH NO SIGNIFICANT WEATHER AND/OR OBSTRUCTIONS TO VISIBILITY

NCZ015>017-031-032-045>047-102-103-232100-
NORTH COAST

CITY           SKY/WX    TMP DP  RH WIND       PRES   REMARKS
EDENTON        RAIN      59  55  86 SE3       30.12S
ELIZABETH CITY LGT RAIN  61  53  75 E3        30.14R
KITTY HAWK     RAIN      63  55  76 SE7       30.12S
MANTEO         DRIZZLE   61  56  81 SE9       30.14S

$$

NCZ045>047-081-094-103-104-232100-
CENTRAL COAST

CITY           SKY/WX    TMP DP  RH WIND       PRES   REMARKS
FRISCO         LGT RAIN  63  60  90 S17G24    30.13F
SWANQUARTER      N/A     59 N/A N/A SE9       30.09S

$$

NCZ095-097-098-100-101-232100-
SOUTHERN COAST

CITY           SKY/WX    TMP DP  RH WIND       PRES   REMARKS
BEAUFORT       LGT RAIN  63  60  90 SE14      30.08F
CEDAR ISLAND     N/A     61 N/A N/A SE14G23   30.15S
JACKSONVILLE   CLOUDY    62  56  80 SE8       30.05F
PINEY ISLAND   RAIN      65  60  84 SE10      30.10F
WILMINGTON     CLOUDY    66  62  87 SE24G37   30.02F


$$

NCZ011>013-027>030-043-044-078>080-089-090>093-098-232100-
COASTAL PLAIN

CITY           SKY/WX    TMP DP  RH WIND       PRES   REMARKS
AHOSKIE        LGT RAIN  58  52  81 CALM      30.10F
CLINTON        LGT RAIN  60  59  99 E8        30.01F
ELIZABETHTOWN  RAIN      61  61 100 E7        29.99F
GOLDSBORO      CLOUDY    59  58  99 E10       30.03F
GREENVILLE     LGT RAIN  59  55  88 SE6       30.09F
HAVELOCK       LGT RAIN  63  60  90 SE10      30.09F
KENANSVILLE    LGT RAIN  59  57  96 E5        30.05F
KINSTON        LGT RAIN  59  57  94 SE8       30.07F
NEW BERN       LGT RAIN  61  57  87 E5        30.09F
RICHLANDS      CLOUDY    59  55  88 E6        30.06F
ROCKY MOUNT    LGT RAIN  55  52  89 VRB5      30.05F
WASHINGTON     CLOUDY    58  56  91 SE6       30.09F
WHITEVILLE     CLOUDY    64  63  94 SE12G18   29.98F

$$

AMZ130-135-150-152-154-156-158-170-250-252-270-ANZ085-086-088-633-658-670-232100-
MARINE OBSERVATIONS

STATION/POSITION TIME  TEMP    WIND        PRES    WAVE   SWELL
                       AIR SEA DIR/SP/G            HT/PER HT/PER
                 (UTC) (F)     (DEG/KT/KT) (MB)    (FT/S) (FT/S)
CHESAPEAKE LIGHT 1900   59     150/  9/  9 1021.5
64 E VA BEACH    2000   65 65  140/  6/  8 1020.6    2/10   2/10
DUCK             2000   59 55  140/  8/  8 1019.6
2 E DUCK         2000      57                N/A     1/ 8
10 NE DUCK       2000      57                N/A     1/ 8
OREGON INLET     2000   60 50  150/ 10/ 12 1020.5
13E OREGON INLT  2000      62                N/A     3/ 4
HATTERAS CG      2000   65 55  150/ 18/ 21 1020.5
DIAMOND BUOY     2000   69     150/ 17/ 25 1020.2    4/ 5   2/ 8
17 S OCRACOKE    NOT AVBL
CAPE LOOKOUT     1900   63     150/ 15/ 16 1019.8
BEAUFORT LAB     2000   62 53  140/ 11/ 15 1017.8
30 SE NEW RIVER  2000   68 69  130/ 27/ 35 1016.1    7/ 6
5 SE WRIGHTSVLE  1900   62 59  140/ 17/ 19 1017.2
225 S CAPE HAT   1853   72 73  140/ 19/ 23 1021.2    6/ 6   2/10
41 SE CHARLESTON 2000   71 75  110/ 35/ 43 1010.7   11/ 8   2/15

$$


USA.gov is the U.S. government's official web portal to all federal, state and local government web resources and services.